User: anonymous   Login
Location: Sungai Kamana Besar
(2.6333°N, 113.4333°E)
Time: 04:48:10
(UTC+00:00)
Language:

Landsat 4 - Orbit

View from above orbital plane
View from above orbital plane
View from above satellite
View from above satellite

Ground track
Ground track

The orbit data is extracted from the following two-line orbital elements,

1 13367U 82072A   22228.89976111  .00002994  00000-0  14189-3 0  9997
2 13367  98.2501 217.2205 0010703 244.8965 115.1158 15.20184725596417
Epoch (UTC): 16 August 2022 21:35:39
Eccentricity: 0.0010703
inclination: 98.2501°
perigee height: 498 km
apogee height: 512 km
right ascension of ascending node: 217.2205°
argument of perigee: 244.8965°
revolutions per day: 15.20184725
mean anomaly at epoch: 115.1158°
orbit number at epoch: 59641

The dashed part of the orbit path shows where the satellite is in the earth's shadow,  

DLR